Wind_Speed
22 22 22 22 22 23 23 23 22 21 22 22 21 21 21 21 21 22 22 22 22 22 22 22 22 22 22 22 21 21 21 21 22 22 23 23 24 24 24 24 23 23 24 24
22 22 23 23 23 23 23 23 23 23 22 22 22 21 21 21 21 21 22 22 23 23 23 23 23 23 23 22 22 22 22 23 23 24 24 25 26 26 25 25 25 25 26 26
21 21 23 24 23 23 23 23 23 23 22 22 22 21 22 22 21 22 23 22 23 23 24 24 24 23 23 23 23 23 23 24 24 25 25 25 26 27 27 27 27 27 27 27
21 21 23 23 22 22 23 23 23 23 23 23 22 22 22 23 23 23 23 24 24 24 25 25 25 24 24 24 24 24 24 25 25 25 26 26 27 27 28 28 28 29 28 28
21 22 23 23 22 22 23 23 23 23 23 23 22 23 23 23 23 23 24 24 24 24 24 24 25 25 24 24 24 24 25 25 26 26 26 27 27 27 28 28 29 30 29 29
23 22 24 24 23 23 23 23 23 23 23 23 23 23 23 23 23 24 24 24 24 24 24 25 26 26 25 25 25 25 25 26 26 27 27 27 27 27 28 28 29 29 28 28
24 24 25 25 24 23 24 25 24 24 24 24 24 25 24 24 24 24 24 25 25 25 25 25 25 27 27 27 26 26 26 26 26 26 27 27 28 28 28 29 29 28 29 28
25 26 26 26 25 25 26 25 25 25 25 25 25 26 25 24 24 25 26 25 25 26 26 25 26 26 26 26 26 26 26 27 26 27 27 28 28 29 29 29 29 28 28 27
25 26 26 26 25 25 25 25 25 26 26 25 25 24 24 24 24 25 25 25 26 26 27 26 26 27 26 25 25 26 26 26 26 26 27 28 27 27 28 28 28 27 27 26
25 25 25 26 26 25 25 25 25 25 25 25 25 24 24 24 24 25 25 25 25 25 25 25 26 26 25 26 26 26 26 26 26 26 27 27 27 27 28 27 27 26 26 25
24 24 25 25 25 25 24 24 25 26 26 25 25 25 24 24 24 25 25 25 25 25 25 25 25 26 26 26 26 26 26 27 26 25 25 25 26 26 26 26 25 25 25 25
22 22 22 21 22 22 23 24 25 25 25 25 25 25 25 25 25 25 25 25 25 25 25 25 24 25 25 25 25 25 25 25 26 25 25 24 24 24 24 24 24 24 24 24
21 21 21 20 21 21 22 22 23 23 23 24 24 24 23 23 22 23 23 24 24 24 24 24 24 24 25 25 25 25 25 25 25 25 25 24 24 24 24 24 23 23 22 22
20 20 20 19 20 20 20 20 21 22 22 22 23 23 23 22 22 22 22 23 24 24 25 25 25 25 25 25 25 26 26 25 24 24 24 24 24 24 23 23 23 22 22 23
19 19 19 19 20 20 20 20 20 20 20 20 20 21 22 22 22 22 23 23 22 23 23 24 24 25 25 24 25 26 25 25 25 24 24 24 24 24 23 23 22 23 23 23
18 18 18 19 19 19 19 20 20 20 20 20 20 20 21 21 21 22 22 23 23 23 23 23 23 23 23 23 24 24 24 24 23 23 24 24 24 23 23 22 22 22 22 22
15 16 17 18 18 19 19 19 19 19 19 20 20 20 20 20 21 21 21 21 21 21 21 21 21 22 21 22 22 22 22 23 23 24 24 24 23 23 23 23 23 23 23 23
14 15 16 17 18 18 19 19 19 19 19 19 20 20 20 20 20 20 20 21 21 21 21 21 21 21 21 21 22 22 22 22 23 24 24 24 23 23 23 23 24 24 24 24
15 15 16 16 17 17 18 19 19 19 19 19 19 19 19 19 19 20 20 20 20 20 20 21 21 21 21 21 21 21 21 22 23 22 22 22 23 24 24 25 25 25 25 25
14 14 14 15 16 17 18 18 18 19 19 20 20 20 19 19 19 19 19 20 20 20 20 20 20 21 21 21 21 21 21 21 20 20 21 22 23 24 25 26 26 26 26 25
13 13 14 15 15 16 17 17 17 18 18 19 19 19 18 18 18 17 17 18 18 19 19 20 20 21 21 21 21 21 21 21 21 21 22 23 24 24 24 25 25 26 26 26
12 13 14 14 14 15 16 17 17 17 17 18 19 18 18 17 16 17 17 17 18 19 19 19 20 20 21 21 21 21 21 21 22 22 23 23 23 24 24 24 24 24 25 25
11 12 12 12 13 14 15 16 15 15 16 16 17 16 16 16 16 16 17 17 18 19 19 19 20 20 21 21 22 22 22 22 22 22 22 23 23 23 24 23 23 24 25 25
11 12 12 12 13 14 14 14 14 14 15 15 15 15 15 15 15 16 16 17 17 18 18 18 19 20 20 21 21 22 22 23 23 24 24 24 24 24 24 24 24 25 25 26
11 11 11 12 12 13 13 13 13 13 13 14 14 14 14 14 14 15 15 16 17 17 18 18 19 20 20 20 21 21 22 22 23 23 23 24 24 24 25 26 26 26 26 26
10 10 10 11 11 10 11 11 12 12 12 12 12 13 13 13 13 14 15 16 16 17 18 18 19 19 20 20 20 20 21 21 22 22 22 22 23 23 24 24 24 24 24 24
10 10 9 10 10 10 11 11 11 11 11 12 12 12 13 13 13 13 14 14 16 17 18 19 19 19 19 19 20 20 21 21 21 21 21 21 22 22 22 22 23 23 24 24
Wind_Direction
240 242 245 246 245 246 247 248 251 254 254 257 259 259 258 257 257 257 256 253 254 256 257 259 260 260 260 261 263 264 265 265 264 262 262 262 263 263 264 264 264 263 264 265
243 244 245 246 245 246 246 248 251 253 255 257 260 259 258 259 260 259 257 255 255 256 255 257 259 259 260 263 265 264 264 264 265 265 264 264 264 264 264 264 263 264 265 265
247 246 246 246 246 248 249 251 252 254 256 258 259 260 260 258 259 260 256 256 256 257 256 256 257 260 261 263 264 264 264 265 265 265 265 265 265 264 263 264 264 264 265 265
249 247 248 249 247 249 251 252 252 254 255 258 261 260 260 258 259 260 256 255 256 256 256 256 257 259 261 261 263 264 264 265 265 266 265 265 266 265 265 265 265 265 266 266
249 251 251 250 249 250 251 253 254 257 257 258 261 260 259 259 259 260 258 256 255 256 257 258 257 258 259 261 262 263 265 266 266 266 266 266 267 268 267 267 267 266 266 269
249 251 252 252 250 251 253 255 255 258 260 261 262 262 260 260 259 259 258 256 255 256 258 259 258 257 257 258 260 263 265 266 265 266 267 267 267 267 268 269 270 268 270 272
250 251 251 252 252 253 253 255 257 258 260 261 262 264 263 261 260 258 258 257 256 257 258 260 260 259 258 258 260 263 264 265 265 266 267 267 267 268 269 270 270 270 271 271
251 252 252 253 254 253 254 256 257 259 261 262 264 265 264 261 259 257 257 258 258 259 258 260 261 260 258 260 261 263 264 264 264 265 267 267 268 269 269 269 269 271 272 272
251 252 253 254 254 255 256 258 259 260 261 262 263 264 263 260 258 256 257 259 259 261 260 262 261 259 259 260 261 263 264 264 263 265 266 267 269 270 270 270 269 270 272 272
254 254 253 253 254 255 256 258 260 261 261 261 261 261 261 260 259 258 259 261 261 261 261 262 260 258 259 259 261 264 265 265 267 267 266 268 269 270 271 272 270 270 271 272
253 255 255 254 255 255 256 257 258 259 259 259 259 259 260 261 262 260 259 260 261 261 261 262 261 258 259 261 263 262 264 266 268 267 266 267 269 271 271 270 268 269 270 271
252 253 253 253 254 254 255 256 258 259 257 255 255 257 259 260 262 262 261 261 260 260 260 260 260 259 260 262 263 264 266 265 265 265 266 267 269 270 271 271 271 270 272 271
253 251 251 253 253 254 255 257 259 259 257 253 255 258 259 260 260 259 259 259 258 256 256 258 258 259 260 262 263 265 266 265 264 264 265 266 268 269 270 271 271 270 272 273
255 253 252 252 252 252 255 258 258 259 258 256 258 260 262 262 261 261 261 258 256 255 255 256 257 258 261 262 263 265 266 265 263 264 266 266 267 269 270 271 270 270 271 271
254 254 253 253 253 253 256 259 260 259 259 259 262 262 263 264 264 263 261 260 259 258 258 259 259 259 260 263 265 266 266 264 262 262 263 266 267 267 268 269 269 270 270 270
255 255 254 253 252 253 257 260 261 261 259 259 263 265 265 266 267 266 263 261 261 260 260 262 261 261 263 266 267 265 263 262 261 262 263 264 265 264 265 266 267 269 270 270
257 258 256 255 254 254 255 258 260 261 259 260 262 265 265 267 268 265 262 260 260 260 261 261 260 261 263 264 265 264 262 261 262 264 264 263 261 262 263 264 266 269 270 272
260 260 259 259 257 256 257 259 261 262 262 261 264 266 266 268 268 266 263 261 261 262 262 262 262 262 263 265 263 262 265 266 264 263 262 261 261 262 263 265 267 268 270 272
261 262 261 262 261 260 259 261 262 264 266 265 265 267 268 270 269 265 263 261 261 261 260 261 261 261 262 263 263 264 266 267 265 262 260 261 263 263 264 265 267 267 269 271
264 264 264 264 263 262 262 263 264 266 267 268 268 268 270 272 270 265 260 258 258 259 260 261 262 262 262 262 262 265 267 266 266 264 263 264 264 264 265 266 266 268 270 271
266 266 266 266 266 265 266 267 267 267 268 269 269 271 272 270 267 263 260 258 258 259 262 264 264 264 262 262 263 264 265 265 266 266 266 265 266 266 267 267 267 268 268 270
268 268 267 267 267 269 270 271 269 268 269 269 269 270 270 269 265 261 260 260 261 262 265 267 267 266 265 264 263 264 264 264 265 266 267 268 268 268 269 270 270 270 270 270
266 268 268 268 269 270 271 272 270 270 271 270 268 266 267 268 268 265 262 262 263 265 267 267 267 267 267 266 265 264 264 265 265 266 267 267 269 269 270 270 270 271 271 271
270 272 271 269 271 273 273 272 271 273 273 271 269 267 267 269 269 267 266 265 265 266 267 267 266 266 267 266 265 264 265 265 266 266 266 268 269 270 270 270 271 272 272 272
276 274 274 276 276 276 274 273 274 277 277 274 271 269 268 270 273 271 268 267 267 270 271 270 269 268 268 268 266 266 266 267 268 270 271 271 271 270 270 271 272 272 273 273
276 277 278 279 279 276 274 276 275 277 277 274 273 270 269 271 274 274 272 270 269 271 272 272 273 272 270 268 266 267 268 269 270 272 273 273 272 272 272 272 273 273 273 273
282 282 283 282 279 276 275 274 275 276 277 277 275 273 273 274 276 276 276 276 276 275 274 275 275 274 273 270 269 269 269 270 271 273 275 275 275 275 274 273 274 275 275 274
Height
5767 5768 5770 5772 5773 5775 5777 5779 5781 5782 5783 5783 5783 5784 5785 5786 5786 5787 5788 5789 5791 5792 5793 5793 5794 5794 5794 5795 5795 5795 5795 5796 5796 5796 5796 5797 5797 5797 5797 5797 5797 5797 5797 5797
5760 5762 5763 5765 5767 5768 5770 5772 5773 5775 5776 5777 5777 5777 5778 5779 5780 5781 5782 5783 5784 5785 5786 5787 5787 5788 5788 5788 5789 5789 5790 5790 5790 5790 5790 5790 5790 5790 5790 5790 5790 5790 5790 5790
5754 5756 5756 5758 5761 5762 5764 5765 5766 5768 5770 5770 5770 5771 5771 5772 5773 5774 5775 5776 5777 5778 5779 5780 5781 5782 5782 5782 5783 5783 5784 5784 5784 5784 5784 5783 5783 5783 5783 5783 5783 5783 5783 5783
5748 5750 5750 5754 5754 5755 5756 5758 5759 5760 5762 5763 5763 5764 5764 5765 5766 5767 5767 5768 5769 5770 5771 5772 5773 5774 5775 5775 5775 5776 5776 5777 5777 5777 5777 5776 5776 5776 5776 5776 5775 5775 5775 5774
5741 5742 5744 5746 5747 5748 5750 5751 5752 5754 5755 5756 5756 5757 5757 5758 5759 5759 5760 5760 5761 5762 5763 5765 5766 5767 5768 5768 5768 5769 5769 5769 5769 5770 5770 5769 5769 5769 5768 5768 5767 5767 5766 5766
5735 5736 5738 5740 5740 5741 5744 5744 5746 5747 5748 5748 5749 5750 5751 5751 5751 5752 5752 5753 5753 5755 5756 5757 5758 5759 5760 5761 5761 5761 5762 5762 5762 5762 5762 5762 5761 5761 5760 5760 5759 5759 5758 5758
5727 5728 5730 5731 5733 5735 5737 5738 5738 5739 5740 5741 5741 5742 5743 5743 5743 5744 5744 5745 5746 5747 5748 5749 5750 5751 5752 5753 5753 5754 5754 5754 5754 5754 5754 5753 5753 5753 5753 5752 5751 5751 5750 5749
5719 5721 5724 5723 5725 5727 5728 5729 5730 5731 5732 5733 5733 5734 5734 5735 5735 5736 5736 5737 5738 5738 5740 5741 5741 5742 5743 5745 5745 5745 5746 5746 5746 5746 5745 5745 5745 5744 5744 5744 5743 5742 5742 5741
5712 5714 5714 5715 5717 5718 5719 5721 5722 5723 5724 5725 5725 5726 5726 5727 5727 5727 5728 5729 5729 5730 5731 5732 5733 5734 5735 5736 5737 5737 5737 5737 5737 5737 5737 5737 5737 5736 5736 5735 5735 5734 5734 5733
5703 5705 5706 5707 5708 5710 5711 5712 5713 5714 5715 5716 5717 5717 5718 5718 5719 5720 5720 5721 5721 5722 5723 5724 5724 5725 5727 5728 5729 5729 5729 5729 5729 5729 5729 5728 5728 5728 5727 5727 5727 5726 5726 5725
5695 5697 5698 5699 5700 5702 5703 5704 5705 5706 5707 5707 5708 5709 5710 5710 5711 5711 5712 5713 5713 5714 5715 5715 5716 5717 5719 5720 5720 5721 5721 5721 5721 5721 5721 5720 5720 5720 5720 5719 5719 5719 5719 5718
5689 5690 5691 5692 5693 5694 5695 5696 5697 5698 5698 5699 5700 5701 5701 5702 5702 5702 5703 5704 5704 5705 5706 5707 5708 5709 5710 5711 5712 5712 5713 5713 5713 5713 5713 5713 5712 5712 5712 5712 5712 5711 5711 5711
5682 5683 5684 5685 5686 5687 5688 5689 5690 5690 5690 5691 5692 5692 5692 5693 5693 5693 5694 5694 5695 5696 5698 5699 5700 5701 5702 5703 5703 5704 5704 5705 5705 5705 5705 5705 5705 5705 5705 5705 5705 5704 5704 5704
5675 5677 5678 5679 5680 5681 5682 5682 5683 5683 5684 5684 5685 5685 5685 5686 5686 5686 5686 5686 5687 5688 5690 5691 5692 5693 5694 5694 5695 5695 5696 5696 5696 5697 5698 5698 5698 5698 5698 5698 5698 5698 5698 5697
5669 5670 5672 5673 5674 5675 5675 5676 5676 5677 5677 5677 5678 5678 5678 5678 5678 5678 5678 5679 5679 5680 5682 5683 5684 5685 5686 5686 5686 5687 5687 5688 5689 5690 5691 5691 5691 5691 5691 5691 5691 5691 5691 5690
5663 5664 5665 5666 5667 5668 5669 5669 5670 5670 5670 5671 5671 5671 5671 5671 5671 5671 5671 5672 5672 5673 5675 5676 5677 5677 5678 5678 5678 5679 5680 5680 5681 5682 5683 5684 5684 5684 5685 5685 5684 5684 5684 5684
5658 5659 5660 5660 5661 5662 5663 5663 5663 5664 5664 5665 5665 5665 5665 5665 5665 5665 5665 5666 5666 5667 5668 5669 5670 5670 5671 5671 5671 5672 5672 5673 5674 5675 5676 5677 5677 5677 5678 5678 5678 5678 5677 5677
5653 5653 5654 5655 5655 5656 5656 5657 5657 5658 5658 5659 5659 5659 5659 5659 5658 5658 5659 5659 5660 5661 5662 5662 5663 5664 5664 5665 5665 5665 5666 5666 5667 5667 5668 5669 5670 5670 5670 5670 5670 5670 5670 5669
5647 5648 5648 5649 5649 5650 5651 5651 5652 5652 5652 5652 5653 5653 5653 5653 5652 5652 5653 5653 5654 5655 5655 5656 5656 5657 5658 5658 5658 5659 5659 5659 5659 5660 5661 5661 5662 5662 5663 5663 5663 5662 5662 5662
5642 5642 5643 5643 5644 5644 5645 5645 5645 5646 5646 5646 5646 5647 5646 5646 5646 5646 5646 5647 5648 5649 5649 5650 5650 5651 5651 5652 5652 5653 5653 5653 5653 5653 5654 5654 5655 5655 5655 5654 5654 5654 5654 5654
5637 5637 5638 5638 5639 5639 5639 5639 5640 5640 5640 5640 5640 5640 5640 5640 5640 5640 5641 5641 5642 5643 5644 5644 5644 5645 5645 5645 5646 5646 5646 5646 5646 5647 5647 5647 5647 5647 5646 5646 5646 5646 5646 5645
5632 5632 5633 5633 5634 5634 5634 5634 5634 5634 5634 5634 5634 5634 5634 5634 5634 5634 5635 5636 5637 5637 5637 5638 5638 5638 5638 5639 5639 5639 5639 5639 5639 5640 5639 5639 5639 5639 5638 5638 5637 5637 5637 5637
5628 5628 5628 5629 5629 5629 5629 5629 5629 5629 5628 5628 5628 5628 5628 5629 5629 5629 5629 5630 5631 5631 5631 5631 5632 5632 5632 5632 5632 5632 5632 5632 5632 5632 5632 5631 5631 5631 5630 5630 5630 5629 5629 5628
5624 5624 5624 5624 5624 5624 5624 5624 5624 5624 5623 5623 5623 5623 5623 5624 5624 5624 5624 5624 5624 5624 5625 5625 5625 5625 5625 5625 5625 5625 5625 5625 5625 5625 5624 5624 5623 5623 5622 5622 5621 5621 5620 5620
5621 5620 5620 5620 5620 5620 5619 5619 5619 5619 5619 5619 5618 5618 5618 5619 5619 5618 5618 5619 5619 5619 5618 5618 5618 5618 5618 5618 5618 5618 5618 5617 5617 5616 5616 5615 5615 5614 5614 5613 5612 5612 5611 5611
5617 5617 5616 5616 5616 5616 5616 5616 5616 5615 5615 5614 5614 5614 5614 5614 5614 5613 5613 5613 5613 5612 5612 5612 5611 5611 5611 5611 5610 5610 5610 5610 5610 5609 5608 5607 5607 5606 5605 5604 5603 5603 5602 5601
5614 5613 5613 5613 5613 5612 5612 5612 5612 5611 5611 5611 5610 5610 5610 5609 5609 5608 5608 5608 5607 5606 5606 5605 5605 5604 5604 5604 5604 5603 5603 5603 5602 5601 5601 5600 5599 5598 5597 5596 5595 5595 5594 5593